Regional Weather Roundup
Issued by NWS Green Bay, WI

Home | Current Version | Previous Version | Text Only | Print | Product List | Glossary On
Versions: 1 2 3 4 5 6 7 8 9 10 11 12 13 14 15 16 17 18 19 20 21 22 23 24 25 26 27 28 29 30 31 32 33 34 35 36 37 38 39 40 41 42 43 44 45 46 47 48 49 50
000
ASUS43 KGRB 210200
RWRGRB

NORTH-CENTRAL AND NORTHEAST WISCONSIN REGIONAL WEATHER ROUNDUP
NATIONAL WEATHER SERVICE GREEN BAY WI
800 PM CST MON NOV 20 2017

WIZ005-009-010>012-018-019-210300-
NORTH CENTRAL WISCONSIN

CITY           SKY/WX    TMP DP  RH WIND       PRES   REMARKS
IRONWOOD       CLEAR     41  29  62 SW20G28   29.29F
MANITOWISH WTR NOT AVBL
ARBOR VITAE    NOT AVBL
EAGLE RIVER    CLOUDY    38  28  66 SW12G17   29.34F
LAND O LAKES   NOT AVBL
RHINELANDER    CLOUDY    40  30  67 SW14      29.37F
PHILLIPS       CLEAR     39  31  71 SW10G16   29.37F
ANTIGO         NOT AVBL
TOMAHAWK       NOT AVBL
MERRILL        CLOUDY    40  31  68 SW8       29.41F
$$

WIZ013-073-210300-
NORTHEAST WISCONSIN

CITY           SKY/WX    TMP DP  RH WIND       PRES   REMARKS
IRON MOUNTAIN  MOCLDY    36  28  73 S8        29.36F
MARINETTE      MOCLDY    45  34  65 SW16      29.44F
$$

WIZ017-030-035>037-045-210300-
CENTRAL WISCONSIN

CITY           SKY/WX    TMP DP  RH WIND       PRES   REMARKS
MEDFORD        NOT AVBL
WAUSAU         CLOUDY    43  30  60 SW12      29.41F
MOSINEE        NOT AVBL
MARSHFIELD     CLOUDY    45  29  53 SW12      29.43F
WISC RAPIDS    CLOUDY    46  32  58 SW10      29.47F
STEVENS POINT  NOT AVBL
WAUPACA        NOT AVBL
SHAWANO        CLOUDY    46  32  58 SW8       29.45R
CLINTONVILLE   NOT AVBL
WAUTOMA        MOCLDY    49  31  49 SW13      29.50F
$$

WIZ038-039-048-051-210300-
FOX VALLEY

CITY           SKY/WX    TMP DP  RH WIND       PRES   REMARKS
NWS GREEN BAY  CLOUDY    46  35  65 S16G26    29.46F
APPLETON       MOCLDY    46  30  53 SW16G24   29.47F
OSHKOSH        CLOUDY    47  34  60 S21       29.50F
FOND DU LAC    PTCLDY    49  32  52 S22G30    29.52F
$$

WIZ022-050-052-210300-
EAST CENTRAL WISCONSIN

CITY           SKY/WX    TMP DP  RH WIND       PRES   REMARKS
EPHRAIM        NOT AVBL
WASHINGTON ISL NOT AVBL
STURGEON BAY   PTCLDY    43  33  68 S14       29.45F
MANITOWOC      CLOUDY    51  33  50 SW24G33   29.50
SHEBOYGAN      PTCLDY    50  34  54 SW28G36   29.55F
$$

LMZ563-521-522-541>543-210300-
LAKESHORE

STATION/POSITION TIME  TEMP    WIND        PRES    VSBY  WAVE
                       AIR SEA DIR/SP/G                  HT/PER
                 (UTC) (F)     (DEG/KT/KT) (MB)    (MI)  (FT/S)
SHEBOYGAN LKSHOR 0100   50     210/ 23/ 27 1001.0F
KEWAUNEE LKSHORE 0130   43     190/ 12/ 15  998.4F
NORTHPORT PIER   0140   44     170/  7/ 15  997.6F
N MID LAKE BUOY  0050   48 48  190/ 27/ 35  998.9F        11/ 8
SISTER BAY LKSHO 0104   44     180/ 15/ 18   N/A
MENOMINEE LKSHOR 0130   44     180/ 14/ 20  996.9F
$$




USA.gov is the U.S. government's official web portal to all federal, state and local government web resources and services.